User: anonymous   Login
Location: Dentlein
(49.1477°N, 10.4231°E)
Time: 17:53:47
(UTC+00:00)
Language:

Cosmos 1455 - Orbit

View from above orbital plane
View from above orbital plane
View from above satellite
View from above satellite

Ground track
Ground track

The orbit data is extracted from the following two-line orbital elements,

1 14032U 83037A   24196.05790387  .00021045  00000-0  54920-3 0  9997
2 14032  82.5064  39.9151 0009523 250.2048 109.8170 15.38638240254125
Epoch (UTC): 14 July 2024 01:23:22
Eccentricity: 0.0009523
inclination: 82.5064°
perigee height: 443 km
apogee height: 456 km
right ascension of ascending node: 39.9151°
argument of perigee: 250.2048°
revolutions per day: 15.38638240
mean anomaly at epoch: 109.8170°
orbit number at epoch: 25412

The dashed part of the orbit path shows where the satellite is in the earth's shadow,  

DLR